Woodside DE-Willow Grove DE USA current weather conditions

sailwx.info

Wind from 209 at 2 knots gusting 3

Air temperature 19.4° C
Dewpoint 17.9° C

Last reported at 2020-Sep-29 03:00 UTC.
Time now 2020-Sep-29 04:12 UTC

Location: N 39°04' W 075°38'.
View on Google Maps.

See reports from other nearby stations

  
Tides and Currents Weather Stations Pressure Air Temp Water Temp Dewpoint Dewpoint Depression Visibility Wind Speed Wind Dir Waves Ship Positions
date/time (UTC)wind fromknots sea level pressurealtimeterstation pressurevisibilityair tempwater tempwave heightnotes
2020-Sep-29 03:00 209 2 gusting 3 19.4
2020-Sep-29 02:55 206 2 gusting 5 19.4
2020-Sep-29 02:50 204 2 gusting 5 19.5
2020-Sep-29 02:45 202 3 gusting 5 19.6
2020-Sep-29 02:40 202 3 gusting 6 19.6
2020-Sep-29 02:35 202 4 gusting 7 19.6
2020-Sep-29 02:30 203 3 gusting 5 19.6
2020-Sep-29 02:25 198 3 gusting 4 19.7
2020-Sep-29 02:20 198 3 gusting 6 19.8
2020-Sep-29 02:15 196 4 gusting 6 19.9
2020-Sep-29 02:10 193 4 gusting 6 19.9
2020-Sep-29 02:05 183 4 gusting 6 20.0
2020-Sep-29 02:00 185 4 gusting 6 20.0
2020-Sep-29 01:55 186 4 gusting 7 20.1
2020-Sep-29 01:50 181 4 gusting 6 20.2
2020-Sep-29 01:45 182 4 gusting 6 20.3
2020-Sep-29 01:40 181 5 gusting 7 20.4
2020-Sep-29 01:35 186 5 gusting 9 20.5
2020-Sep-29 01:30 181 4 gusting 9 20.5
2020-Sep-29 01:25 187 4 gusting 8 20.6
2020-Sep-29 01:20 190 5 gusting 8 20.6
2020-Sep-29 01:15 189 4 gusting 7 20.6
2020-Sep-29 01:10 191 4 gusting 6 20.7
2020-Sep-29 01:05 187 3 gusting 7 20.7
2020-Sep-29 01:00 191 3 gusting 7 20.8
2020-Sep-29 00:55 184 3 gusting 7 21.0
2020-Sep-29 00:50 188 4 gusting 7 21.1
2020-Sep-29 00:45 189 4 gusting 6 21.2
2020-Sep-29 00:40 185 3 gusting 6 21.3
2020-Sep-29 00:35 191 4 gusting 8 21.4
2020-Sep-29 00:30 186 4 gusting 6 21.4
2020-Sep-29 00:25 193 3 gusting 6 21.4
2020-Sep-29 00:20 191 3 gusting 5 21.6
2020-Sep-29 00:15 185 4 gusting 6 21.7
2020-Sep-29 00:10 181 4 gusting 6 21.7
2020-Sep-29 00:05 178 4 gusting 6 21.7
2020-Sep-29 00:00 182 4 gusting 5 21.6
2020-Sep-28 23:55 181 4 gusting 7 21.4
2020-Sep-28 23:50 179 4 gusting 6 21.0
2020-Sep-28 23:45 176 3 gusting 4 20.5
2020-Sep-28 23:40 159 2 gusting 3 20.0
2020-Sep-28 23:35 176 0 gusting 2 20.0
2020-Sep-28 23:30 172 0 gusting 0 20.4
2020-Sep-28 23:25 257 0 gusting 1 20.6
2020-Sep-28 23:20 217 0 gusting 1 20.8
2020-Sep-28 23:15 21.1
2020-Sep-28 23:10 148 0 gusting 1 21.3
2020-Sep-28 23:05 148 0 gusting 1 21.9
2020-Sep-28 23:00 197 0 gusting 0 22.5
2020-Sep-28 22:55 199 0 gusting 2 22.9
2020-Sep-28 22:50 217 1 gusting 2 23.3
2020-Sep-28 22:45 200 2 gusting 4 23.7
2020-Sep-28 22:40 201 2 gusting 5 24.0
2020-Sep-28 22:35 206 3 gusting 6 24.3
2020-Sep-28 22:30 202 3 gusting 6 24.6
2020-Sep-28 22:25 204 4 gusting 6 24.7
2020-Sep-28 22:20 203 4 gusting 8 24.9
2020-Sep-28 22:15 204 3 gusting 6 25.1
2020-Sep-28 22:10 195 5 gusting 8 25.3
2020-Sep-28 22:05 201 4 gusting 6 25.6
2020-Sep-28 22:00 202 4 gusting 8 25.8
2020-Sep-28 21:55 197 4 gusting 7 26.0
2020-Sep-28 21:50 200 3 gusting 5 26.1
2020-Sep-28 21:45 203 4 gusting 6 26.3
2020-Sep-28 21:40 202 4 gusting 6 26.5
2020-Sep-28 21:35 205 3 gusting 5 26.6
2020-Sep-28 21:30 202 4 gusting 7 26.7
2020-Sep-28 21:25 208 4 gusting 8 26.8
2020-Sep-28 21:20 201 5 gusting 8 26.8
2020-Sep-28 21:15 203 5 gusting 8 26.9
2020-Sep-28 21:10 202 4 gusting 7 27.0
2020-Sep-28 21:05 194 5 gusting 8 27.1
2020-Sep-28 21:00 191 5 gusting 9 27.2
2020-Sep-28 20:55 197 4 gusting 8 27.4
2020-Sep-28 20:50 195 4 gusting 9 27.6
2020-Sep-28 20:45 201 3 gusting 5 27.4
2020-Sep-28 20:40 208 4 gusting 7 27.3
2020-Sep-28 20:35 197 6 gusting 9 27.3
2020-Sep-28 20:30 205 5 gusting 9 27.3
2020-Sep-28 20:25 185 6 gusting 8 27.2
2020-Sep-28 20:20 214 6 gusting 11 27.3
2020-Sep-28 20:15 208 5 gusting 10 27.3
2020-Sep-28 20:10 221 5 gusting 9 27.4
2020-Sep-28 20:05 212 5 gusting 9 27.5
2020-Sep-28 20:00 204 6 gusting 10 27.7
2020-Sep-28 19:55 199 4 gusting 7 27.7
2020-Sep-28 19:50 201 5 gusting 11 27.4
2020-Sep-28 19:45 196 6 gusting 10 27.2
2020-Sep-28 19:40 190 6 gusting 9 27.1
2020-Sep-28 19:35 203 5 gusting 8 27.0
2020-Sep-28 19:30 208 5 gusting 9 27.2
2020-Sep-28 19:25 209 4 gusting 7 27.3
2020-Sep-28 19:20 213 5 gusting 10 27.5
2020-Sep-28 19:15 205 4 gusting 6 27.9
2020-Sep-28 19:10 194 4 gusting 7 27.7
2020-Sep-28 19:05 191 6 gusting 10 27.6
2020-Sep-28 19:00 181 5 gusting 8 27.3
2020-Sep-28 18:55 180 4 gusting 8 27.3
2020-Sep-28 18:50 195 5 gusting 9 27.7
2020-Sep-28 18:45 177 5 gusting 8 27.6
2020-Sep-28 18:40 187 5 gusting 8 27.8
2020-Sep-28 18:35 195 4 gusting 7 27.3
2020-Sep-28 18:30 189 5 gusting 10 27.7
2020-Sep-28 18:25 194 5 gusting 9 27.6
2020-Sep-28 18:20 188 4 gusting 6 27.5
2020-Sep-28 18:15 208 5 gusting 8 27.8
2020-Sep-28 18:10 242 4 gusting 8 27.6
2020-Sep-28 18:05 229 4 gusting 8 28.0
2020-Sep-28 18:00 202 4 gusting 8 28.4
2020-Sep-28 17:55 185 3 gusting 6 27.9
2020-Sep-28 17:50 226 3 gusting 7 28.0
2020-Sep-28 17:45 188 5 gusting 9 27.9
2020-Sep-28 17:40 187 5 gusting 8 27.5
2020-Sep-28 17:35 213 5 gusting 8 27.6
2020-Sep-28 17:30 173 4 gusting 7 27.5
2020-Sep-28 17:25 207 5 gusting 9 27.8
2020-Sep-28 17:20 215 4 gusting 7 27.5
2020-Sep-28 17:15 194 6 gusting 9 27.3
2020-Sep-28 17:10 210 5 gusting 8 27.1
2020-Sep-28 17:05 216 5 gusting 11 26.8
2020-Sep-28 17:00 247 6 gusting 12 26.7
2020-Sep-28 16:55 213 6 gusting 12 26.9
2020-Sep-28 16:50 212 6 gusting 15 27.1
2020-Sep-28 16:45 211 4 gusting 7 27.0
2020-Sep-28 16:40 202 6 gusting 10 26.6
2020-Sep-28 16:35 227 5 gusting 10 26.4
2020-Sep-28 16:30 236 5 gusting 9 26.3
2020-Sep-28 16:25 209 5 gusting 10 26.3
2020-Sep-28 16:20 217 4 gusting 8 26.1
2020-Sep-28 16:15 221 4 gusting 8 26.2
2020-Sep-28 16:10 221 4 gusting 8 25.9
2020-Sep-28 16:05 223 5 gusting 8 25.8
2020-Sep-28 16:00 225 4 gusting 9 25.8
2020-Sep-28 15:55 220 4 gusting 9 25.5
2020-Sep-28 15:50 225 4 gusting 8 25.4
2020-Sep-28 15:45 239 4 gusting 9 25.3
2020-Sep-28 15:40 241 4 gusting 7 25.2
2020-Sep-28 15:35 230 4 gusting 9 25.3
2020-Sep-28 15:30 220 5 gusting 10 24.9
2020-Sep-28 15:25 229 4 gusting 9 25.0
2020-Sep-28 15:20 218 4 gusting 8 25.0
2020-Sep-28 15:15 241 4 gusting 7 24.9
2020-Sep-28 15:10 205 4 gusting 8 24.7
2020-Sep-28 15:05 209 5 gusting 9 24.6
2020-Sep-28 15:00 210 4 gusting 7 24.5
2020-Sep-28 14:55 207 4 gusting 7 24.4
2020-Sep-28 14:50 215 3 gusting 7 24.1
2020-Sep-28 14:45 223 3 gusting 6 23.9
2020-Sep-28 14:40 206 5 gusting 8 23.8
2020-Sep-28 14:35 213 3 gusting 6 23.6
2020-Sep-28 14:30 218 3 gusting 7 23.1
2020-Sep-28 14:25 224 4 gusting 10 23.2
2020-Sep-28 14:20 208 3 gusting 6 23.3
2020-Sep-28 14:15 203 3 gusting 6 22.6
2020-Sep-28 14:10 218 3 gusting 6 21.9
2020-Sep-28 14:05 209 4 gusting 8 21.5
2020-Sep-28 14:00 218 2 gusting 5 21.4
2020-Sep-28 13:55 211 4 gusting 6 21.6
2020-Sep-28 13:50 211 3 gusting 7 21.6
2020-Sep-28 13:45 216 4 gusting 7 21.3
2020-Sep-28 13:40 203 3 gusting 8 21.6
2020-Sep-28 13:35 216 3 gusting 5 21.3
2020-Sep-28 13:30 202 4 gusting 6 21.0
2020-Sep-28 13:25 195 3 gusting 6 20.4
2020-Sep-28 13:20 202 3 gusting 6 20.1
2020-Sep-28 13:15 194 4 gusting 6 20.1
2020-Sep-28 13:10 198 3 gusting 6 20.1
2020-Sep-28 13:05 207 3 gusting 6 20.2
2020-Sep-28 13:00 211 3 gusting 4 20.3
2020-Sep-28 12:55 208 3 gusting 6 20.3
2020-Sep-28 12:50 202 3 gusting 6 20.1
2020-Sep-28 12:45 207 2 gusting 4 19.9
2020-Sep-28 12:40 212 2 gusting 5 19.8
2020-Sep-28 12:35 201 3 gusting 4 19.7
2020-Sep-28 12:30 208 2 gusting 4 19.6
2020-Sep-28 12:25 210 2 gusting 4 19.6
2020-Sep-28 12:20 206 3 gusting 6 19.6
2020-Sep-28 12:15 206 3 gusting 5 19.5
2020-Sep-28 12:10 209 3 gusting 5 19.5
2020-Sep-28 12:05 208 2 gusting 6 19.4
2020-Sep-28 12:00 204 3 gusting 6 19.4
2020-Sep-28 11:55 193 3 gusting 5 19.3
2020-Sep-28 11:50 186 2 gusting 3 19.3
2020-Sep-28 11:45 182 1 gusting 3 19.2
2020-Sep-28 11:40 182 2 gusting 3 19.2
2020-Sep-28 11:35 182 2 gusting 5 19.2
2020-Sep-28 11:30 185 2 gusting 3 19.2
2020-Sep-28 11:25 198 2 gusting 3 19.2
2020-Sep-28 11:20 202 2 gusting 3 19.2
2020-Sep-28 11:15 181 2 gusting 3 19.2
2020-Sep-28 11:10 192 2 gusting 3 19.2
2020-Sep-28 11:05 184 2 gusting 4 19.2
2020-Sep-28 11:00 177 1 gusting 2 19.3
2020-Sep-28 10:55 190 1 gusting 3 19.3
2020-Sep-28 10:50 190 3 gusting 4 19.3
2020-Sep-28 10:45 176 2 gusting 4 19.3
2020-Sep-28 10:40 179 2 gusting 3 19.4
2020-Sep-28 10:35 193 2 gusting 4 19.4
2020-Sep-28 10:30 177 2 gusting 5 19.4
2020-Sep-28 10:25 179 2 gusting 4 19.4
2020-Sep-28 10:20 182 2 gusting 3 19.4
2020-Sep-28 10:15 172 2 gusting 4 19.4
2020-Sep-28 10:10 168 2 gusting 3 19.3
2020-Sep-28 10:05 175 2 gusting 3 19.3
2020-Sep-28 10:00 163 1 gusting 3 19.3
2020-Sep-28 09:55 134 1 gusting 2 19.3
2020-Sep-28 09:50 154 1 gusting 1 19.2
2020-Sep-28 09:45 176 1 gusting 1 19.2
2020-Sep-28 09:40 190 1 gusting 3 19.3
2020-Sep-28 09:35 191 1 gusting 2 19.3
2020-Sep-28 09:30 195 1 gusting 2 19.4
2020-Sep-28 09:25 193 1 gusting 3 19.4
2020-Sep-28 09:20 204 1 gusting 2 19.5
2020-Sep-28 09:15 204 1 gusting 2 19.6
2020-Sep-28 09:10 201 1 gusting 3 19.7
2020-Sep-28 09:05 202 2 gusting 3 19.7
2020-Sep-28 09:00 198 1 gusting 2 19.7
2020-Sep-28 08:55 198 2 gusting 4 19.7
2020-Sep-28 08:50 201 2 gusting 4 19.7
2020-Sep-28 08:45 204 2 gusting 4 19.7
2020-Sep-28 08:40 205 2 gusting 4 19.7
2020-Sep-28 08:35 208 2 gusting 5 19.6
2020-Sep-28 08:30 211 3 gusting 4 19.6
2020-Sep-28 08:25 196 2 gusting 4 19.6
2020-Sep-28 08:20 193 1 gusting 3 19.6
2020-Sep-28 08:15 192 2 gusting 3 19.5
2020-Sep-28 08:10 189 2 gusting 3 19.4
2020-Sep-28 08:05 200 2 gusting 3 19.4
2020-Sep-28 08:00 193 1 gusting 2 19.5
2020-Sep-28 07:55 203 0 gusting 1 19.6
2020-Sep-28 07:50 195 1 gusting 2 19.6
2020-Sep-28 07:45 187 1 gusting 1 19.7
2020-Sep-28 07:40 206 0 gusting 1 19.8
2020-Sep-28 07:35 223 1 gusting 2 19.9
2020-Sep-28 07:30 218 1 gusting 2 20.0
2020-Sep-28 07:25 210 1 gusting 3 20.1
2020-Sep-28 07:20 199 2 gusting 3 20.2
2020-Sep-28 07:15 196 2 gusting 3 20.3
2020-Sep-28 07:10 203 2 gusting 5 20.4
2020-Sep-28 07:05 208 2 gusting 4 20.4
2020-Sep-28 07:00 206 4 gusting 6 20.4
2020-Sep-28 06:55 204 3 gusting 5 20.5
2020-Sep-28 06:50 210 3 gusting 6 20.5
2020-Sep-28 06:45 208 3 gusting 6 20.5
2020-Sep-28 06:40 210 3 gusting 5 20.5
2020-Sep-28 06:35 207 3 gusting 5 20.5
2020-Sep-28 06:30 206 3 gusting 6 20.5
2020-Sep-28 06:25 204 3 gusting 4 20.5
2020-Sep-28 06:20 216 2 gusting 4 20.5
2020-Sep-28 06:15 211 2 gusting 4 20.5
2020-Sep-28 06:10 204 2 gusting 4 20.5
2020-Sep-28 06:05 206 2 gusting 4 20.5
2020-Sep-28 06:00 215 2 gusting 5 20.5
2020-Sep-28 05:55 210 3 gusting 6 20.4
2020-Sep-28 05:50 212 3 gusting 5 20.4
2020-Sep-28 05:45 199 3 gusting 6 20.5
2020-Sep-28 05:40 198 3 gusting 5 20.5
2020-Sep-28 05:35 201 3 gusting 5 20.5
2020-Sep-28 05:30 197 3 gusting 6 20.5
2020-Sep-28 05:25 200 3 gusting 6 20.5
2020-Sep-28 05:20 205 4 gusting 6 20.5
2020-Sep-28 05:15 198 3 gusting 5 20.5
2020-Sep-28 05:10 198 2 gusting 4 20.4
2020-Sep-28 05:05 200 2 gusting 4 20.4
2020-Sep-28 05:00 199 1 gusting 2 20.4
2020-Sep-28 04:55 199 1 gusting 3 20.4
2020-Sep-28 04:50 203 2 gusting 3 20.3
2020-Sep-28 04:45 198 1 gusting 2 20.4
2020-Sep-28 04:40 199 1 gusting 3 20.5
2020-Sep-28 04:35 203 2 gusting 3 20.5
2020-Sep-28 04:30 205 2 gusting 4 20.6
2020-Sep-28 04:25 203 1 gusting 3 20.7
2020-Sep-28 04:20 210 2 gusting 4 20.7
2020-Sep-28 04:15 207 2 gusting 5 20.8
2020-Sep-28 04:10 207 2 gusting 4 21.0
2020-Sep-28 04:05 217 2 gusting 4 21.0
2020-Sep-28 04:00 212 2 gusting 5 21.1
2020-Sep-28 03:55 202 2 gusting 4 21.2
2020-Sep-28 03:50 206 1 gusting 2 21.2
2020-Sep-28 03:45 211 1 gusting 2 21.2
2020-Sep-28 03:40 259 1 gusting 3 21.2
2020-Sep-28 03:35 234 0 gusting 1 21.2
2020-Sep-28 03:30 205 1 gusting 2 21.2
2020-Sep-28 03:25 219 0 gusting 2 21.2
2020-Sep-28 03:20 206 2 gusting 3 21.2
2020-Sep-28 03:15 207 2 gusting 3 21.2
2020-Sep-28 03:10 200 2 gusting 4 21.2
2020-Sep-28 03:05 209 2 gusting 4 21.2
2020-Sep-28 03:00 216 2 gusting 5 21.1
2020-Sep-28 02:55 185 2 gusting 4 21.1
2020-Sep-28 02:50 195 2 gusting 3 21.1
2020-Sep-28 02:45 187 2 gusting 3 21.1
2020-Sep-28 02:40 189 2 gusting 3 21.1
2020-Sep-28 02:35 186 1 gusting 2 21.1
2020-Sep-28 02:30 185 1 gusting 2 21.1
2020-Sep-28 02:25 167 1 gusting 3 21.1
2020-Sep-28 02:20 170 1 gusting 3 21.1
2020-Sep-28 02:15 163 1 gusting 4 21.1
2020-Sep-28 02:10 158 1 gusting 3 21.1
2020-Sep-28 02:05 158 2 gusting 3 21.1
2020-Sep-28 02:00 158 2 gusting 3 21.1
2020-Sep-28 01:55 154 1 gusting 1 21.1
2020-Sep-28 01:50 162 1 gusting 3 21.1
2020-Sep-28 01:45 166 0 gusting 1 21.2
2020-Sep-28 01:40 168 1 gusting 3 21.2
2020-Sep-28 01:35 162 1 gusting 3 21.2
2020-Sep-28 01:30 188 1 gusting 3 21.2
2020-Sep-28 01:25 191 1 gusting 2 21.2
2020-Sep-28 01:20 187 1 gusting 2 21.3
2020-Sep-28 01:15 158 1 gusting 2 21.2
2020-Sep-28 01:10 154 1 gusting 2 21.3
2020-Sep-28 01:05 142 1 gusting 2 21.3
2020-Sep-28 01:00 125 1 gusting 2 21.3
2020-Sep-28 00:55 136 1 gusting 2 21.3
2020-Sep-28 00:50 145 1 gusting 3 21.3
2020-Sep-28 00:45 183 1 gusting 2 21.3
2020-Sep-28 00:40 193 1 gusting 3 21.3
2020-Sep-28 00:35 156 1 gusting 1 21.4
2020-Sep-28 00:30 130 1 gusting 3 21.4
2020-Sep-28 00:25 145 1 gusting 1 21.4
2020-Sep-28 00:20 137 1 gusting 2 21.5
2020-Sep-28 00:15 127 1 gusting 1 21.5
2020-Sep-28 00:10 132 0 gusting 1 21.4
2020-Sep-28 00:05 138 1 gusting 1 21.3
2020-Sep-28 00:00 136 0 gusting 1 21.3
2020-Sep-27 23:55 123 0 gusting 1 21.3
2020-Sep-27 23:50 193 0 gusting 0 21.2
2020-Sep-27 23:45 207 0 gusting 0 21.2
2020-Sep-27 23:40 150 0 gusting 0 21.2
2020-Sep-27 23:35 109 1 gusting 2 21.2
2020-Sep-27 23:30 226 1 gusting 1 21.2
2020-Sep-27 23:25 265 0 gusting 0 21.2
2020-Sep-27 23:20 21.5
2020-Sep-27 23:15 21.7
2020-Sep-27 23:10 265 0 gusting 0 21.7
2020-Sep-27 23:05 265 0 gusting 1 21.9
2020-Sep-27 23:00 22.0
2020-Sep-27 22:55 265 0 gusting 0 22.0
2020-Sep-27 22:50 214 0 gusting 0 22.1
2020-Sep-27 22:45 097 0 gusting 1 22.2
2020-Sep-27 22:40 085 2 gusting 3 22.3
2020-Sep-27 22:35 077 2 gusting 2 22.4
2020-Sep-27 22:30 064 0 gusting 1 22.5
2020-Sep-27 22:25 318 0 gusting 0 22.6
2020-Sep-27 22:20 318 0 gusting 0 22.7
2020-Sep-27 22:15 318 0 gusting 0 22.8
2020-Sep-27 22:10 318 0 gusting 0 22.9
2020-Sep-27 22:05 23.0
2020-Sep-27 22:00 286 0 gusting 1 23.1
2020-Sep-27 21:55 289 0 gusting 1 23.2
2020-Sep-27 21:50 23.2
2020-Sep-27 21:45 010 0 gusting 0 23.2
2020-Sep-27 21:40 008 0 gusting 1 23.3
2020-Sep-27 21:35 338 1 gusting 2 23.4
2020-Sep-27 21:30 001 1 gusting 2 23.6
2020-Sep-27 21:25 331 1 gusting 2 23.8
2020-Sep-27 21:20 352 1 gusting 2 23.9
2020-Sep-27 21:15 305 1 gusting 2 23.8
2020-Sep-27 21:10 335 1 gusting 3 23.7
2020-Sep-27 21:05 338 1 gusting 3 23.7
2020-Sep-27 21:00 325 1 gusting 3 23.8
2020-Sep-27 20:55 301 2 gusting 3 24.2
2020-Sep-27 20:50 262 1 gusting 2 24.4
2020-Sep-27 20:45 258 0 gusting 1 24.5
2020-Sep-27 20:40 235 0 gusting 1 24.4
2020-Sep-27 20:35 212 0 gusting 1 24.4
2020-Sep-27 20:30 118 0 gusting 1 24.3
2020-Sep-27 20:25 096 1 gusting 2 24.2
2020-Sep-27 20:20 118 2 gusting 4 24.2
2020-Sep-27 20:15 100 2 gusting 4 24.5
2020-Sep-27 20:10 095 1 gusting 2 24.6
2020-Sep-27 20:05 121 2 gusting 4 24.7
2020-Sep-27 20:00 078 2 gusting 4 24.8
2020-Sep-27 19:55 107 2 gusting 3 24.9
2020-Sep-27 19:50 085 0 gusting 3 24.8
2020-Sep-27 19:45 100 0 gusting 2 24.3
2020-Sep-27 19:40 111 1 gusting 3 24.2
2020-Sep-27 19:35 094 2 gusting 3 24.0
2020-Sep-27 19:30 081 2 gusting 4 23.9
2020-Sep-27 19:25 083 2 gusting 4 23.6
2020-Sep-27 19:20 085 3 gusting 4 23.3
2020-Sep-27 19:15 095 2 gusting 4 23.1
2020-Sep-27 19:10 103 3 gusting 4 23.2
2020-Sep-27 19:05 090 2 gusting 4 23.3
2020-Sep-27 19:00 090 3 gusting 5 23.4
2020-Sep-27 18:55 097 3 gusting 5 23.6
2020-Sep-27 18:50 095 3 gusting 6 23.9
2020-Sep-27 18:45 106 2 gusting 4 24.1
2020-Sep-27 18:40 091 1 gusting 2 24.2
2020-Sep-27 18:35 076 1 gusting 3 24.3
2020-Sep-27 18:30 051 1 gusting 3 24.3
2020-Sep-27 18:25 351 1 gusting 3 24.3
2020-Sep-27 18:20 027 2 gusting 4 24.3
2020-Sep-27 18:15 020 3 gusting 5 24.6
2020-Sep-27 18:10 031 1 gusting 4 25.0
2020-Sep-27 18:05 091 0 gusting 2 24.9
2020-Sep-27 18:00 124 0 gusting 1 24.5
2020-Sep-27 17:55 130 1 gusting 3 24.4
2020-Sep-27 17:50 080 0 gusting 3 24.5
2020-Sep-27 17:45 133 1 gusting 3 24.8
2020-Sep-27 17:40 112 1 gusting 3 24.6
2020-Sep-27 17:35 072 2 gusting 4 24.2
2020-Sep-27 17:30 095 2 gusting 4 24.1
2020-Sep-27 17:25 087 1 gusting 4 24.0
2020-Sep-27 17:20 087 2 gusting 4 23.8
2020-Sep-27 17:15 093 3 gusting 5 23.9
2020-Sep-27 17:10 106 3 gusting 6 23.9
2020-Sep-27 17:05 112 3 gusting 5 23.9
2020-Sep-27 17:00 096 3 gusting 6 23.9
2020-Sep-27 16:55 096 3 gusting 5 23.8
2020-Sep-27 16:50 086 4 gusting 7 23.8
2020-Sep-27 16:45 097 3 gusting 5 23.9
2020-Sep-27 16:40 098 2 gusting 5 23.8
2020-Sep-27 16:35 126 3 gusting 6 23.7
2020-Sep-27 16:30 112 3 gusting 5 23.7
2020-Sep-27 16:25 103 3 gusting 5 23.8
2020-Sep-27 16:20 093 2 gusting 6 23.5
2020-Sep-27 16:15 078 3 gusting 5 23.4
2020-Sep-27 16:10 128 3 gusting 5 23.3
2020-Sep-27 16:05 099 2 gusting 5 22.9
2020-Sep-27 16:00 096 3 gusting 5 22.7
2020-Sep-27 15:55 082 2 gusting 4 22.7
2020-Sep-27 15:50 100 3 gusting 5 22.8
2020-Sep-27 15:45 092 3 gusting 6 22.6
2020-Sep-27 15:40 089 4 gusting 6 22.6
2020-Sep-27 15:35 087 4 gusting 6 22.4
2020-Sep-27 15:30 083 4 gusting 6 22.4
2020-Sep-27 15:25 097 4 gusting 6 22.2
2020-Sep-27 15:20 083 4 gusting 7 22.1
2020-Sep-27 15:15 089 4 gusting 6 22.1
2020-Sep-27 15:10 082 5 gusting 7 21.9
2020-Sep-27 15:05 091 3 gusting 5 21.8
2020-Sep-27 15:00 102 4 gusting 7 21.7
2020-Sep-27 14:55 100 4 gusting 6 21.7
2020-Sep-27 14:50 092 4 gusting 7 21.7
2020-Sep-27 14:45 089 4 gusting 6 21.5
2020-Sep-27 14:40 099 4 gusting 7 21.4
2020-Sep-27 14:35 101 4 gusting 6 21.4
2020-Sep-27 14:30 091 5 gusting 7 21.3
2020-Sep-27 14:25 087 5 gusting 7 21.2
2020-Sep-27 14:20 105 4 gusting 6 21.0
2020-Sep-27 14:15 099 3 gusting 5 20.8
2020-Sep-27 14:10 108 3 gusting 5 20.7
2020-Sep-27 14:05 097 3 gusting 4 20.7
2020-Sep-27 14:00 110 2 gusting 4 20.6
2020-Sep-27 13:55 092 4 gusting 6 20.5
2020-Sep-27 13:50 079 3 gusting 6 20.5
2020-Sep-27 13:45 078 4 gusting 6 20.5
2020-Sep-27 13:40 102 4 gusting 6 20.5
2020-Sep-27 13:35 104 3 gusting 5 20.5
2020-Sep-27 13:30 106 3 gusting 6 20.4
2020-Sep-27 13:25 108 2 gusting 5 20.4
2020-Sep-27 13:20 088 3 gusting 4 20.2
2020-Sep-27 13:15 088 2 gusting 4 20.2
2020-Sep-27 13:10 087 3 gusting 5 20.1
2020-Sep-27 13:05 083 3 gusting 6 20.0
2020-Sep-27 13:00 083 3 gusting 6 19.9
2020-Sep-27 12:55 094 3 gusting 4 19.8
2020-Sep-27 12:50 089 2 gusting 4 19.8
2020-Sep-27 12:45 086 3 gusting 4 19.8
2020-Sep-27 12:40 083 2 gusting 4 19.7
2020-Sep-27 12:35 059 2 gusting 3 19.7
2020-Sep-27 12:30 080 2 gusting 3 19.7
2020-Sep-27 12:25 084 2 gusting 3 19.7
2020-Sep-27 12:20 076 1 gusting 3 19.6
2020-Sep-27 12:15 054 1 gusting 1 19.7
2020-Sep-27 12:10 054 1 gusting 2 19.6
2020-Sep-27 12:05 057 1 gusting 2 19.6
2020-Sep-27 12:00 057 1 gusting 3 19.6
2020-Sep-27 11:55 043 1 gusting 1 19.5
2020-Sep-27 11:50 015 1 gusting 1 19.5
2020-Sep-27 11:45 004 1 gusting 2 19.5
2020-Sep-27 11:40 014 1 gusting 1 19.4
2020-Sep-27 11:35 017 0 gusting 1 19.4
2020-Sep-27 11:30 028 0 gusting 1 19.4
2020-Sep-27 11:25 028 0 gusting 0 19.3
2020-Sep-27 11:20 059 0 gusting 0 19.3
2020-Sep-27 11:15 065 1 gusting 1 19.3
2020-Sep-27 11:10 083 0 gusting 1 19.3
2020-Sep-27 11:05 071 1 gusting 2 19.3
2020-Sep-27 11:00 067 1 gusting 2 19.3
2020-Sep-27 10:55 087 1 gusting 3 19.3
2020-Sep-27 10:50 077 1 gusting 3 19.3
2020-Sep-27 10:45 078 2 gusting 3 19.3
2020-Sep-27 10:40 086 1 gusting 2 19.4
2020-Sep-27 10:35 095 1 gusting 3 19.4
2020-Sep-27 10:30 084 2 gusting 4 19.4
2020-Sep-27 10:25 096 2 gusting 4 19.4
2020-Sep-27 10:20 087 2 gusting 4 19.4
2020-Sep-27 10:15 077 3 gusting 4 19.4
2020-Sep-27 10:10 073 2 gusting 3 19.5
2020-Sep-27 10:05 083 1 gusting 3 19.5
2020-Sep-27 10:00 094 2 gusting 3 19.5
2020-Sep-27 09:55 103 2 gusting 3 19.5
2020-Sep-27 09:50 093 2 gusting 3 19.5
2020-Sep-27 09:45 076 2 gusting 4 19.5
2020-Sep-27 09:40 067 1 gusting 2 19.5
2020-Sep-27 09:35 044 1 gusting 2 19.5
2020-Sep-27 09:30 039 1 gusting 2 19.5
2020-Sep-27 09:25 047 1 gusting 1 19.5
2020-Sep-27 09:20 040 1 gusting 2 19.5
2020-Sep-27 09:15 032 1 gusting 1 19.5
2020-Sep-27 09:10 043 1 gusting 2 19.5
2020-Sep-27 09:05 048 0 gusting 1 19.5
2020-Sep-27 09:00 19.5
2020-Sep-27 08:55 044 0 gusting 0 19.5
2020-Sep-27 08:50 044 0 gusting 0 19.5
2020-Sep-27 08:45 044 0 gusting 0 19.5
2020-Sep-27 08:40 044 0 gusting 0 19.5
2020-Sep-27 08:35 044 0 gusting 0 19.5
2020-Sep-27 08:30 19.5
2020-Sep-27 08:25 19.5
2020-Sep-27 08:20 062 0 gusting 0 19.4
2020-Sep-27 08:15 072 0 gusting 0 19.4
2020-Sep-27 08:10 19.4
2020-Sep-27 08:05 042 0 gusting 0 19.4
2020-Sep-27 08:00 051 0 gusting 1 19.4
2020-Sep-27 07:55 040 1 gusting 1 19.4
2020-Sep-27 07:50 054 0 gusting 1 19.4
2020-Sep-27 07:45 089 0 gusting 1 19.4
2020-Sep-27 07:40 109 1 gusting 1 19.4
2020-Sep-27 07:35 128 1 gusting 2 19.4
2020-Sep-27 07:30 124 1 gusting 2 19.4
2020-Sep-27 07:25 123 1 gusting 2 19.4
2020-Sep-27 07:20 120 1 gusting 2 19.4
2020-Sep-27 07:15 089 0 gusting 2 19.4
2020-Sep-27 07:10 070 1 gusting 2 19.4
2020-Sep-27 07:05 071 0 gusting 1 19.4
2020-Sep-27 07:00 102 0 gusting 1 19.4
2020-Sep-27 06:55 108 1 gusting 2 19.4
2020-Sep-27 06:50 106 2 gusting 4 19.4
2020-Sep-27 06:45 090 1 gusting 3 19.4
2020-Sep-27 06:40 094 0 gusting 1 19.4
2020-Sep-27 06:35 111 1 gusting 3 19.4
2020-Sep-27 06:30 116 1 gusting 3 19.4
2020-Sep-27 06:25 117 2 gusting 3 19.4
2020-Sep-27 06:20 116 2 gusting 4 19.4
2020-Sep-27 06:15 100 2 gusting 3 19.4
2020-Sep-27 06:10 094 1 gusting 2 19.4
2020-Sep-27 06:05 098 2 gusting 3 19.4
2020-Sep-27 06:00 094 1 gusting 3 19.4
2020-Sep-27 05:55 093 2 gusting 3 19.4
2020-Sep-27 05:50 078 1 gusting 3 19.4
2020-Sep-27 05:45 086 2 gusting 3 19.4
2020-Sep-27 05:40 085 2 gusting 3 19.4
2020-Sep-27 05:35 091 2 gusting 3 19.4
2020-Sep-27 05:30 088 2 gusting 2 19.4
2020-Sep-27 05:25 077 1 gusting 2 19.4
2020-Sep-27 05:20 086 1 gusting 2 19.4
2020-Sep-27 05:15 077 1 gusting 2 19.4
2020-Sep-27 05:10 075 1 gusting 1 19.4
2020-Sep-27 05:05 077 1 gusting 2 19.4
2020-Sep-27 05:00 094 0 gusting 1 19.4
2020-Sep-27 04:55 095 1 gusting 2 19.4
2020-Sep-27 04:50 106 1 gusting 2 19.3
2020-Sep-27 04:45 124 1 gusting 2 19.3
2020-Sep-27 04:40 085 1 gusting 2 19.1
2020-Sep-27 04:35 320 0 gusting 0 19.0
2020-Sep-27 04:30 19.0
2020-Sep-27 04:25 18.9
2020-Sep-27 04:20 321 0 gusting 1 19.0
2020-Sep-27 04:15 320 1 gusting 1 19.0
2020-Sep-27 04:10 348 1 gusting 1 19.1
2020-Sep-27 04:05 048 1 gusting 2 19.0
2020-Sep-27 04:00 088 1 gusting 3 18.9